Weather History for K8D3 - July, 2013

Change the Weather History Date:

Saturday, July 13, 2013

  Actual Average Record
Temperature  
Mean Temperature 78 °F 71 °F  
Max Temperature 85 °F 83 °F 104 °F (1974)
Min Temperature 70 °F 60 °F 40 °F (1950)
Degree Days  
Heating Degree Days 0 0  
Month to date heating degree days 0 3  
Since 1 June heating degree days 69 65  
Since 1 July heating degree days 0 3  
Cooling Degree Days 13 7  
Month to date cooling degree days 115 80  
Year to date cooling degree days 257 197  
Since 1 June cooling degree days 232 174  
Growing Degree Days 28 (Base 50)    
Moisture  
Dew Point 72 °F    
Average Humidity 87    
Maximum Humidity 100    
Minimum Humidity 74    
Precipitation  
Precipitation 0.00 in 0.13 in 0.94 in (1941)
Month to date precipitation 1.96 1.50  
Year to date precipitation 16.88 12.22  
Sea Level Pressure  
Sea Level Pressure 29.85 in    
Wind  
Wind Speed 6 mph (ENE)    
Max Wind Speed 15 mph    
Max Gust Speed 21 mph    
T = Trace of Precipitation, MM = Missing Value Source: NWS Daily Summary

Daily Weather History Graph

Daily Weather History Graph

Search for Another Location

Airport or City:

Trip Planner

Search our weather history database for the weather conditions in past years. The results will help you decide how hot, cold, wet, or windy it might be!

Date:

Astronomy

Jul. 13, 2013 Rise Set
Actual Time 5:51 AM CDT 9:15 PM CDT
Civil Twilight 5:14 AM CDT 9:52 PM CDT
Nautical Twilight 4:26 AM CDT 10:40 PM CDT
Astronomical Twilight 3:24 AM CDT 11:41 PM CDT
Moon 11:28 AM CDT (7/13) 11:36 PM CDT (7/13)
Length of Visible Light 16h 37m
Length of Day
15h 23m
Waxing Crescent, 26% of the Moon is Illuminated
Jul 13
Waxing Crescent
Jul 15
First Quarter
Jul 22
Full
Jul 29
Last Quarter
Aug 6
New

Hourly Weather History & Observations

Time (CDT) Temp. Heat Index Dew Point Humidity Pressure Visibility Wind Dir Wind Speed Gust Speed Precip Events Conditions
12:56 AM 73.9 °F - 73.0 °F 97% 29.77 in - ENE 4.6 mph - N/A   Unknown
1:56 AM 73.0 °F - 72.0 °F 96% 29.78 in - NNW 3.5 mph - N/A   Unknown
2:56 AM 73.9 °F - 72.0 °F 93% 29.78 in - North 8.1 mph - N/A   Unknown
3:56 AM 73.0 °F - 72.0 °F 96% 29.79 in - North 5.8 mph - N/A   Unknown
4:56 AM 73.0 °F - 72.0 °F 96% 29.81 in - NNW 8.1 mph - N/A   Unknown
5:56 AM 73.0 °F - 73.0 °F 100% 29.82 in - North 10.4 mph - N/A   Unknown
6:56 AM 73.0 °F - 72.0 °F 96% 29.83 in - North 8.1 mph - N/A   Unknown
7:56 AM 73.0 °F - 72.0 °F 96% 29.85 in - North 4.6 mph - N/A   Unknown
8:56 AM 75.0 °F - 73.0 °F 94% 29.86 in - NNE 5.8 mph - N/A   Unknown
9:56 AM 75.9 °F - 72.0 °F 87% 29.87 in - NE 6.9 mph - N/A   Unknown
10:56 AM 75.9 °F - 73.0 °F 91% 29.85 in - East 8.1 mph - N/A   Unknown
11:56 AM 75.0 °F - 71.1 °F 87% 29.86 in - East 6.9 mph - N/A   Unknown
12:56 PM 75.9 °F - 71.1 °F 85% 29.88 in - SE 4.6 mph - N/A   Unknown
1:56 PM 77.0 °F - 72.0 °F 84% 29.88 in - SSE 3.5 mph - N/A   Unknown
2:56 PM 80.1 °F 84.5 °F 73.9 °F 81% 29.87 in - Calm Calm - N/A   Unknown
3:56 PM 82.0 °F 87.9 °F 73.9 °F 76% 29.86 in - Calm Calm - N/A   Unknown
4:56 PM 84.0 °F 92.6 °F 75.9 °F 76% 29.86 in - East 3.5 mph - N/A   Unknown
5:56 PM 82.9 °F 90.2 °F 75.0 °F 77% 29.86 in - ESE 5.8 mph - N/A   Unknown
6:56 PM 80.1 °F 84.2 °F 73.0 °F 79% 29.86 in - East 9.2 mph - N/A   Unknown
7:56 PM 79.0 °F - 73.9 °F 84% 29.84 in - SE 9.2 mph - N/A   Unknown
8:56 PM 77.0 °F - 71.1 °F 82% 29.85 in - SSE 11.5 mph 17.3 mph N/A   Unknown
9:56 PM 75.0 °F - 69.1 °F 82% 29.89 in - SSE 6.9 mph - N/A   Unknown
10:56 PM 73.0 °F - 69.1 °F 87% 29.92 in - SSE 5.8 mph - N/A   Unknown
11:56 PM 71.1 °F - 69.1 °F 93% 29.94 in - SSE 3.5 mph - N/A   Unknown